Temperature
4 4 4 5 5 5 5 6 6 6 6 6 6 6 6 6 6 6 6 6 6 6 6 6 6 6 6 6 6 6 6 7 7 7 6 7 7 7 7 7 7 7 7
3 3 4 4 4 5 5 5 5 5 5 5 5 5 5 5 5 5 5 5 5 6 6 5 6 6 6 6 6 6 6 6 6 6 5 5 5 6 6 7 7 7 7
3 3 3 4 4 4 4 5 5 5 5 5 5 5 4 4 5 5 5 5 5 5 5 5 5 5 5 5 5 5 5 5 5 5 5 5 5 5 5 6 6 6 6
2 2 3 3 3 4 4 4 4 4 4 4 4 4 4 4 4 4 4 4 4 4 4 4 4 4 4 4 4 5 5 5 5 5 5 5 5 5 4 5 5 5 5
2 2 2 3 3 3 3 3 3 3 4 3 3 3 3 3 3 3 4 4 4 4 4 4 4 4 4 4 4 4 4 4 4 4 4 4 4 4 4 4 4 5 5
1 1 2 2 2 2 3 3 3 3 3 3 3 3 3 3 3 3 3 3 3 3 3 3 3 3 3 3 3 3 3 4 3 4 3 4 3 4 4 4 4 4 4
1 1 1 1 1 2 2 2 2 2 2 2 2 2 2 2 2 2 2 2 3 3 2 2 3 2 3 3 3 3 3 3 3 3 3 3 3 3 3 3 3 3 3
1 1 1 1 1 1 1 1 1 2 2 2 2 2 1 1 2 2 2 2 2 2 2 2 2 2 2 2 2 2 2 2 2 2 2 2 2 2 2 2 2 2 2
0 0 0 0 0 1 1 1 1 1 1 1 1 1 1 1 1 1 1 1 1 1 1 2 2 2 2 1 1 2 2 2 2 2 2 2 2 2 2 2 2 1 1
-0 0 -0 -0 -0 0 0 0 0 0 1 1 1 1 1 1 1 1 1 1 1 1 1 1 1 1 1 1 1 1 1 1 1 1 1 1 1 1 1 1 1 1 1
-1 -1 -0 -1 -1 -1 -0 -0 -0 -0 0 0 0 0 0 0 0 0 0 0 0 0 0 0 0 1 1 1 1 1 1 1 1 0 1 1 1 1 1 1 0 0 0
-1 -1 -1 -1 -1 -1 -1 -1 -1 -1 -1 -0 -0 -0 -0 -0 -0 -0 -0 -0 -0 -0 -0 -0 -0 -0 0 0 0 0 0 0 0 -0 -0 -0 -0 -0 -0 -0 -0 -0 -0
-2 -2 -2 -2 -2 -2 -2 -1 -1 -1 -1 -1 -1 -1 -1 -1 -1 -1 -1 -1 -1 -1 -1 -1 -1 -1 -0 -0 -0 -0 -0 -1 -1 -1 -1 -1 -1 -1 -1 -1 -1 -1 -1
-3 -3 -3 -3 -2 -3 -3 -2 -2 -2 -2 -2 -2 -2 -2 -2 -2 -2 -2 -1 -1 -1 -1 -1 -1 -1 -1 -1 -1 -1 -1 -1 -1 -1 -1 -1 -1 -1 -1 -1 -1 -1 -1
-3 -3 -3 -3 -3 -3 -3 -3 -3 -3 -3 -3 -3 -2 -2 -2 -2 -2 -2 -2 -2 -2 -2 -2 -2 -2 -2 -2 -2 -2 -2 -2 -2 -2 -2 -2 -2 -2 -2 -2 -2 -2 -2
-3 -3 -4 -4 -4 -4 -4 -4 -4 -3 -3 -3 -3 -3 -3 -3 -3 -3 -3 -3 -3 -3 -3 -3 -3 -3 -3 -3 -3 -3 -3 -3 -3 -3 -3 -3 -2 -2 -2 -2 -3 -3 -3
-4 -4 -4 -4 -4 -4 -4 -4 -4 -4 -4 -4 -4 -4 -4 -4 -4 -4 -4 -4 -3 -3 -4 -4 -3 -3 -3 -3 -3 -4 -3 -3 -3 -3 -3 -3 -3 -3 -3 -3 -3 -3 -3
-4 -4 -4 -4 -4 -4 -4 -4 -4 -4 -4 -5 -5 -5 -5 -5 -4 -4 -4 -4 -4 -4 -4 -4 -4 -4 -4 -4 -4 -4 -4 -4 -4 -4 -4 -4 -4 -4 -4 -4 -4 -4 -4
-4 -4 -5 -5 -5 -5 -5 -5 -5 -5 -5 -5 -5 -5 -5 -5 -5 -5 -5 -5 -5 -5 -5 -5 -5 -5 -5 -5 -5 -5 -5 -5 -5 -5 -5 -5 -5 -4 -5 -5 -5 -5 -5
-5 -5 -5 -5 -5 -5 -6 -6 -6 -6 -6 -6 -6 -6 -6 -6 -6 -6 -6 -6 -6 -6 -6 -6 -6 -6 -5 -5 -6 -6 -6 -6 -6 -6 -5 -5 -5 -5 -6 -6 -6 -6 -5
-5 -5 -5 -6 -6 -6 -6 -6 -6 -6 -6 -6 -6 -6 -6 -6 -6 -6 -6 -6 -6 -6 -6 -6 -6 -6 -6 -6 -6 -6 -6 -6 -6 -6 -6 -6 -6 -6 -7 -7 -7 -6 -6
-6 -6 -6 -6 -7 -7 -7 -7 -7 -7 -7 -7 -7 -7 -7 -7 -7 -7 -7 -7 -7 -7 -7 -7 -7 -7 -7 -7 -7 -7 -7 -7 -7 -7 -7 -7 -7 -7 -7 -7 -7 -7 -7
-7 -7 -7 -7 -7 -7 -7 -7 -8 -8 -8 -8 -8 -8 -8 -8 -8 -8 -8 -8 -8 -8 -8 -8 -8 -8 -8 -8 -7 -7 -7 -8 -8 -8 -8 -8 -8 -8 -8 -8 -8 -8 -8
-8 -8 -8 -8 -8 -8 -8 -8 -8 -9 -9 -9 -9 -9 -9 -9 -9 -9 -9 -9 -9 -9 -9 -9 -9 -9 -8 -8 -8 -8 -8 -8 -8 -8 -8 -8 -8 -8 -8 -8 -8 -8 -8
-8 -8 -8 -8 -9 -9 -9 -9 -9 -9 -9 -9 -9 -9 -9 -10 -9 -9 -9 -9 -9 -9 -9 -9 -9 -9 -9 -9 -9 -9 -9 -9 -9 -9 -9 -9 -9 -9 -9 -9 -9 -9 -9
-9 -9 -9 -9 -9 -9 -9 -9 -10 -10 -10 -10 -10 -10 -10 -10 -10 -10 -10 -10 -10 -10 -10 -10 -10 -10 -10 -10 -10 -10 -10 -10 -10 -10 -10 -9 -9 -9 -9 -10 -10 -9 -9
Wind_Speed
3 2 2 1 0 0 0 1 1 1 1 1 1 2 1 1 1 1 1 2 2 3 3 2 3 3 3 3 3 3 3 2 2 2 1 1 1 1 0 0 0 1 1
3 2 1 1 1 1 1 1 1 1 1 1 1 1 1 1 1 1 1 1 2 3 3 3 3 3 3 3 4 4 3 2 2 2 2 2 2 1 1 1 1 0 0
4 3 2 2 2 1 1 1 1 1 1 0 1 1 1 1 1 1 1 0 1 2 3 3 3 3 4 4 5 5 4 4 2 2 2 3 3 1 2 2 2 1 1
4 3 3 3 2 2 2 2 1 1 1 1 1 2 1 1 2 2 1 1 1 1 2 3 3 3 3 3 4 4 4 4 3 2 2 2 1 2 2 2 2 2 2
4 3 3 3 2 2 2 2 2 1 1 1 1 2 1 1 1 1 1 1 1 0 1 1 2 3 2 3 3 3 3 4 4 3 2 2 2 3 3 3 2 2 2
3 3 2 2 2 2 1 1 2 1 1 1 1 1 2 1 2 1 1 1 1 1 1 1 2 2 2 3 3 3 4 3 4 3 3 3 3 3 3 4 3 3 2
2 2 2 2 2 2 2 2 2 1 1 1 1 1 2 2 2 2 2 1 1 1 1 1 1 2 2 2 3 3 3 4 4 4 3 4 4 3 4 4 4 4 3
2 2 2 2 2 2 2 2 2 1 1 1 1 1 1 1 1 2 2 2 1 1 1 1 1 2 2 2 2 3 3 3 4 4 4 3 3 4 4 4 4 4 4
2 2 2 2 2 2 2 2 2 2 1 1 1 1 1 1 1 1 2 1 1 1 1 2 1 2 2 2 2 2 3 3 4 4 4 4 3 3 3 4 4 5 5
2 2 2 2 2 2 2 2 2 2 2 1 1 1 1 1 1 1 1 1 1 1 1 2 2 2 2 3 2 2 3 3 3 3 4 4 3 3 3 4 4 5 6
3 3 3 3 2 2 2 2 2 2 2 1 1 1 1 1 1 1 1 1 1 1 2 2 2 2 3 3 3 3 3 4 3 3 4 4 4 4 3 3 4 4 5
3 3 3 2 2 2 2 2 2 2 2 2 2 2 1 1 1 1 1 1 1 2 2 3 3 3 3 3 4 4 4 4 5 4 4 4 4 5 4 4 4 4 5
3 3 2 2 2 2 2 2 2 2 2 2 2 2 1 1 2 2 2 1 2 2 2 3 3 3 3 4 4 4 5 5 5 6 6 5 5 5 4 4 4 4 4
2 2 2 2 3 3 2 2 2 2 2 2 2 2 2 2 2 2 2 2 2 2 2 3 3 4 4 4 4 4 4 5 5 5 5 5 5 5 5 5 5 4 5
2 3 3 3 3 3 3 3 2 2 2 2 2 2 2 2 2 2 2 2 2 2 3 3 3 3 3 4 4 4 5 4 4 5 5 5 6 6 6 5 5 5 5
3 4 4 4 4 4 3 3 3 2 2 2 3 2 2 2 2 2 2 2 2 2 3 3 3 3 3 4 6 5 4 5 5 4 4 5 6 6 7 7 7 6 6
5 5 5 5 5 4 4 4 3 3 2 3 3 2 2 2 2 2 2 2 2 2 3 3 3 4 4 5 6 6 5 4 5 5 4 4 5 6 5 6 7 7 8
6 5 5 5 5 4 4 3 3 2 3 3 3 3 3 3 2 2 2 2 2 2 3 3 3 4 4 5 6 6 5 4 5 5 5 5 5 5 5 5 5 6 6
6 5 5 5 5 4 3 2 2 3 3 3 3 3 3 3 3 3 3 3 2 3 3 3 3 4 4 5 5 5 3 4 4 4 4 5 5 6 7 6 6 6 6
5 5 4 4 4 3 2 2 3 3 4 4 3 3 3 3 3 3 3 3 3 3 3 3 3 4 4 5 5 5 3 4 4 4 4 5 6 7 8 7 6 7 6
5 4 3 3 3 3 3 3 3 4 4 3 3 3 3 3 3 3 2 3 2 2 3 3 4 4 4 5 5 5 3 4 4 4 4 4 6 7 7 7 7 8 6
5 4 3 4 3 2 3 4 4 4 3 2 2 2 2 2 2 2 2 3 3 3 3 3 3 3 4 4 5 5 5 5 4 5 4 5 7 7 8 7 7 8 6
5 4 4 4 4 3 3 4 4 3 2 2 2 2 2 2 2 2 3 3 3 3 3 3 3 3 3 3 5 6 6 6 4 4 5 6 7 7 6 6 7 6 5
5 4 4 4 4 4 4 4 3 2 2 2 2 2 2 2 2 2 2 3 3 3 3 3 3 3 3 3 3 3 3 4 4 4 4 6 6 6 6 5 5 4 4
4 4 4 5 5 4 4 3 2 2 2 2 2 2 2 2 2 2 3 3 4 4 4 4 4 4 4 4 5 4 3 3 3 3 3 3 3 3 3 4 4 4 4
5 4 5 5 5 4 4 3 3 3 3 2 2 2 2 2 2 2 2 4 4 5 6 6 6 5 6 7 7 7 6 5 5 4 3 4 4 4 4 4 4 4 5
Wind_Direction
278 280 273 265 236 166 172 175 148 131 127 149 192 193 203 190 173 149 158 177 175 169 169 166 180 177 178 175 169 162 160 157 164 162 150 161 165 197 237 306 333 91 93
275 276 277 266 242 217 218 215 192 187 187 219 226 240 199 201 176 140 138 158 180 180 180 181 183 182 182 178 175 171 177 181 193 197 181 196 198 187 226 251 259 266 150
258 257 253 247 247 241 237 234 224 210 211 230 146 85 120 165 189 210 199 224 200 194 190 192 187 183 189 189 188 190 192 193 207 224 216 205 211 209 204 229 243 264 265
255 252 243 237 237 247 244 236 224 212 206 181 178 168 192 215 227 220 210 196 189 189 195 199 193 183 189 192 196 203 210 198 200 220 260 276 263 210 204 211 231 250 256
256 252 244 234 229 231 232 232 225 206 195 189 203 204 217 226 177 170 185 191 178 160 171 194 185 184 191 195 194 200 210 208 210 209 223 233 239 239 233 235 243 257 262
264 261 258 235 220 214 213 214 219 209 180 187 204 210 211 192 155 138 183 200 201 194 190 212 195 192 193 199 202 198 206 212 218 217 219 227 228 225 235 243 247 257 260
264 262 256 239 227 220 211 211 214 219 196 207 231 234 230 207 191 188 198 203 215 229 234 242 231 218 212 214 209 197 208 213 217 222 230 235 245 243 246 247 255 266 274
264 257 258 246 225 220 214 219 221 231 241 232 236 233 227 219 216 216 215 211 229 228 241 257 249 241 228 223 219 210 213 216 222 227 233 240 248 246 243 247 251 257 259
273 271 277 269 250 232 225 227 226 236 252 255 253 242 237 238 223 212 212 218 238 242 235 247 261 256 228 216 216 226 228 225 228 231 233 240 244 247 250 245 243 242 251
286 287 289 285 269 259 246 236 233 230 239 248 251 260 254 245 230 212 209 216 227 238 236 245 248 253 242 227 222 227 231 234 239 241 234 239 247 245 245 241 249 250 248
277 282 290 289 282 270 256 248 244 246 250 246 245 250 254 248 232 229 230 224 225 226 234 243 246 245 246 235 235 234 231 232 241 244 239 242 247 245 246 245 245 250 249
288 287 288 292 290 281 267 261 259 258 259 254 245 246 253 246 238 244 247 243 241 238 241 243 244 244 245 242 240 241 240 237 238 240 243 248 250 249 247 243 242 247 253
301 301 297 297 295 294 289 276 268 268 265 252 242 243 250 251 254 257 253 253 256 257 251 249 251 252 252 249 245 245 244 244 243 240 238 240 242 247 250 250 249 250 255
300 300 297 297 296 296 293 284 280 272 259 244 241 245 255 258 260 266 258 256 257 261 260 262 262 261 259 256 253 249 252 250 247 245 244 242 241 246 249 250 252 253 254
295 292 289 291 294 295 294 291 283 272 252 238 242 251 261 262 263 265 268 268 264 264 265 268 269 265 260 255 257 256 253 253 255 252 251 251 249 250 249 251 252 252 250
292 292 287 285 285 285 287 288 284 273 250 239 246 251 250 251 255 262 269 271 273 274 268 264 266 267 265 266 268 264 258 253 250 256 260 255 247 240 242 249 252 252 247
286 286 280 275 276 276 277 274 276 270 250 244 246 242 241 244 248 251 257 263 271 273 271 270 266 268 273 270 271 268 267 257 253 250 255 260 255 251 249 248 248 254 252
282 282 282 279 280 278 277 276 271 255 246 247 248 243 236 239 245 244 250 264 273 265 267 269 270 275 275 270 269 270 264 259 256 253 249 254 262 255 256 257 259 262 262
287 285 281 279 278 275 276 271 267 257 248 250 253 253 246 243 244 247 255 267 265 263 266 271 273 272 274 272 269 271 264 256 259 264 259 255 258 253 249 253 257 264 270
297 294 286 280 275 275 270 257 258 258 258 260 260 259 251 243 243 248 258 266 260 261 270 276 277 274 273 271 270 273 257 253 259 262 261 256 260 261 250 249 252 257 266
304 300 285 276 275 271 256 253 257 261 268 267 261 261 256 250 247 251 255 252 254 259 268 274 277 276 273 273 273 276 262 252 260 261 262 261 260 266 264 259 255 256 262
307 303 292 289 289 273 255 260 263 270 272 265 261 262 263 261 252 243 249 247 244 245 255 266 278 278 272 270 272 273 266 257 258 261 262 262 266 273 273 270 260 257 257
300 299 291 293 295 280 262 265 273 274 267 264 266 271 273 269 258 244 244 245 241 242 254 259 269 278 278 272 272 274 270 267 264 263 261 266 271 275 274 269 265 261 256
298 297 292 288 292 290 278 267 273 264 252 257 267 269 268 270 266 257 249 247 244 245 249 255 264 275 278 277 276 277 272 273 273 270 263 262 264 265 261 263 264 258 253
298 293 282 282 288 293 286 281 268 248 248 253 256 262 263 264 269 269 266 260 256 254 255 257 263 266 271 275 283 283 275 269 267 267 261 259 262 263 260 261 260 258 252
294 290 284 282 286 288 285 280 263 240 234 246 255 257 258 259 262 274 291 291 278 276 275 273 271 274 273 279 281 285 281 278 272 266 256 258 262 262 262 264 265 261 259
Height
1512 1511 1511 1511 1511 1512 1512 1513 1514 1514 1515 1516 1516 1517 1517 1518 1519 1520 1520 1521 1522 1522 1523 1524 1525 1526 1527 1528 1529 1530 1531 1532 1534 1535 1535 1536 1537 1538 1539 1540 1540 1541 1542
1509 1508 1508 1508 1508 1509 1509 1510 1511 1512 1513 1513 1514 1515 1515 1515 1516 1517 1517 1517 1518 1519 1520 1521 1521 1522 1523 1525 1526 1527 1528 1529 1531 1532 1533 1534 1536 1535 1535 1536 1537 1538 1538
1505 1505 1505 1505 1506 1506 1507 1507 1508 1509 1510 1511 1511 1512 1512 1513 1513 1513 1514 1514 1515 1516 1517 1518 1519 1520 1521 1522 1523 1524 1525 1526 1527 1529 1531 1532 1533 1533 1533 1533 1534 1534 1535
1503 1502 1502 1502 1503 1503 1504 1505 1506 1506 1507 1508 1508 1508 1509 1508 1509 1510 1511 1512 1513 1513 1514 1515 1516 1517 1518 1519 1520 1521 1523 1524 1524 1525 1527 1529 1529 1530 1530 1531 1531 1531 1532
1500 1499 1499 1500 1500 1501 1502 1502 1503 1504 1504 1505 1505 1506 1506 1507 1507 1508 1508 1509 1509 1510 1511 1511 1512 1513 1514 1516 1517 1518 1519 1520 1521 1522 1523 1525 1525 1526 1527 1527 1527 1528 1528
1497 1497 1497 1497 1498 1498 1499 1499 1500 1501 1501 1502 1503 1503 1504 1504 1504 1504 1505 1506 1506 1507 1508 1508 1509 1510 1511 1512 1513 1514 1515 1517 1518 1519 1520 1521 1522 1522 1523 1524 1524 1524 1525
1494 1494 1494 1495 1495 1495 1496 1496 1497 1498 1499 1499 1500 1500 1501 1501 1501 1502 1502 1503 1503 1504 1505 1505 1506 1507 1508 1509 1510 1510 1512 1513 1514 1515 1516 1518 1518 1519 1520 1520 1520 1520 1521
1492 1492 1492 1492 1492 1493 1493 1494 1495 1495 1496 1496 1497 1498 1498 1498 1499 1499 1500 1500 1501 1501 1502 1502 1503 1504 1504 1505 1506 1507 1508 1509 1510 1511 1513 1513 1514 1515 1516 1516 1517 1517 1517
1491 1491 1491 1490 1490 1490 1491 1491 1492 1492 1493 1494 1494 1495 1495 1496 1496 1497 1497 1497 1498 1498 1499 1500 1500 1501 1501 1502 1503 1504 1504 1505 1506 1507 1508 1509 1510 1510 1511 1512 1513 1514 1513
1489 1489 1489 1488 1488 1488 1488 1489 1489 1489 1490 1491 1491 1492 1493 1493 1493 1494 1494 1494 1495 1495 1496 1496 1497 1498 1498 1499 1500 1500 1501 1501 1502 1503 1504 1505 1505 1506 1507 1507 1508 1509 1510
1488 1487 1487 1486 1486 1486 1486 1486 1486 1486 1487 1487 1488 1489 1489 1490 1490 1490 1491 1491 1491 1492 1492 1493 1493 1494 1495 1495 1496 1496 1497 1498 1498 1499 1499 1500 1501 1502 1502 1503 1504 1504 1505
1486 1485 1485 1484 1483 1483 1483 1483 1483 1483 1484 1484 1485 1485 1486 1486 1487 1487 1487 1488 1488 1489 1489 1489 1490 1490 1491 1491 1492 1492 1493 1493 1494 1494 1495 1495 1496 1497 1498 1498 1499 1499 1500
1484 1483 1482 1481 1481 1480 1480 1480 1480 1480 1481 1481 1481 1482 1482 1483 1483 1484 1484 1484 1485 1485 1485 1485 1486 1486 1487 1487 1488 1488 1488 1489 1489 1490 1490 1491 1492 1492 1492 1493 1494 1494 1495
1482 1481 1480 1479 1479 1478 1478 1478 1478 1477 1478 1478 1478 1478 1479 1479 1480 1480 1481 1481 1481 1481 1481 1482 1482 1482 1483 1483 1484 1484 1484 1484 1485 1485 1485 1486 1486 1487 1487 1488 1489 1490 1490
1480 1479 1478 1477 1477 1476 1475 1475 1475 1475 1475 1475 1475 1475 1476 1476 1476 1477 1477 1477 1478 1478 1478 1478 1478 1478 1478 1479 1479 1479 1479 1480 1480 1480 1480 1481 1481 1482 1482 1483 1483 1484 1484
1478 1477 1476 1475 1474 1473 1473 1472 1472 1472 1472 1471 1472 1472 1472 1472 1473 1473 1473 1474 1474 1474 1474 1474 1474 1474 1474 1474 1474 1475 1475 1475 1475 1475 1475 1476 1476 1476 1477 1478 1478 1479 1479
1475 1474 1473 1472 1471 1471 1470 1469 1469 1469 1468 1468 1468 1468 1469 1469 1469 1469 1470 1470 1470 1470 1470 1470 1469 1469 1469 1470 1470 1470 1470 1470 1470 1470 1470 1471 1471 1471 1472 1472 1473 1473 1474
1473 1471 1470 1469 1469 1468 1467 1466 1466 1466 1465 1465 1465 1465 1465 1465 1465 1465 1466 1466 1465 1466 1466 1466 1465 1465 1465 1465 1465 1465 1465 1465 1465 1465 1466 1466 1466 1466 1467 1467 1467 1467 1468
1471 1469 1468 1467 1466 1465 1464 1463 1462 1462 1462 1461 1461 1461 1461 1461 1461 1461 1462 1462 1462 1462 1462 1461 1461 1460 1460 1461 1461 1461 1460 1460 1460 1461 1461 1461 1461 1462 1462 1463 1462 1462 1462
1468 1466 1465 1464 1463 1462 1461 1460 1459 1458 1458 1458 1458 1458 1458 1458 1457 1457 1457 1458 1458 1458 1457 1457 1457 1456 1456 1456 1456 1456 1456 1456 1456 1456 1456 1457 1457 1458 1458 1458 1458 1457 1457
1465 1463 1462 1460 1459 1458 1457 1456 1455 1455 1455 1454 1454 1454 1454 1454 1454 1454 1454 1454 1454 1453 1453 1453 1453 1452 1452 1452 1452 1452 1452 1452 1451 1451 1451 1452 1452 1453 1453 1453 1453 1452 1452
1462 1460 1459 1457 1456 1455 1454 1452 1452 1452 1451 1451 1450 1450 1450 1450 1450 1450 1450 1450 1450 1449 1449 1448 1448 1448 1448 1448 1447 1448 1448 1448 1448 1447 1447 1447 1447 1448 1448 1448 1448 1448 1448
1459 1457 1455 1454 1453 1452 1451 1449 1449 1448 1448 1447 1447 1446 1446 1446 1446 1446 1446 1446 1446 1445 1445 1444 1444 1444 1444 1444 1444 1444 1444 1444 1443 1443 1443 1443 1443 1443 1443 1443 1443 1443 1443
1456 1454 1452 1451 1449 1448 1447 1447 1446 1445 1444 1444 1443 1443 1443 1443 1442 1442 1442 1442 1442 1441 1441 1440 1440 1440 1440 1440 1440 1439 1440 1439 1439 1439 1438 1438 1438 1438 1438 1438 1438 1438 1437
1452 1451 1449 1448 1446 1445 1444 1443 1443 1442 1441 1441 1440 1440 1440 1439 1439 1438 1438 1438 1438 1438 1438 1437 1437 1436 1436 1436 1436 1436 1435 1435 1435 1435 1434 1434 1434 1433 1433 1433 1433 1433 1432
1449 1447 1446 1444 1443 1442 1441 1440 1440 1439 1438 1437 1437 1437 1436 1436 1435 1435 1435 1434 1435 1434 1434 1434 1434 1433 1433 1432 1432 1432 1432 1432 1432 1431 1430 1430 1429 1429 1429 1428 1428 1428 1428